SCP
1 1 0 1 1 0 0 0 0 0 0 0 0 0 0 0 0 0 0 0 1 1 1 1 1 1 1 2 2 2 3 3 3 3 3 3 3 3 3 3 4 4 5 5 6 5 5 4 4
1 1 1 1 1 0 0 0 0 0 0 0 0 0 0 0 0 0 0 1 1 1 1 1 1 1 2 2 2 2 3 3 3 3 3 3 3 3 2 3 3 4 5 5 5 5 5 4 4
1 1 1 1 1 0 0 0 0 0 0 0 0 0 0 0 0 1 1 1 1 1 1 1 1 2 2 2 2 2 2 2 3 3 3 3 3 2 2 2 3 3 4 4 5 5 5 5 4
1 1 1 1 1 1 0 0 0 1 1 0 0 0 0 0 1 1 1 1 1 1 2 2 2 2 2 2 2 2 2 2 3 3 3 3 3 3 2 2 3 3 3 3 4 4 5 5 5
1 1 1 1 1 1 1 0 1 1 0 0 0 0 0 1 1 1 1 1 1 2 2 2 3 3 3 3 2 2 2 2 3 3 3 3 3 3 3 3 2 2 3 3 4 4 4 4 5
1 1 1 1 1 0 0 0 1 0 0 0 1 1 1 1 1 1 1 1 1 2 2 3 4 4 4 3 3 3 3 3 3 3 3 4 4 4 3 3 3 3 3 3 3 3 3 4 4
2 1 1 1 1 0 0 0 1 1 0 1 1 1 1 1 1 1 1 1 1 2 3 4 4 4 4 3 3 3 3 3 3 4 4 4 4 4 4 3 3 3 3 2 2 3 3 4 4
2 1 1 1 0 0 0 0 1 1 1 1 1 1 1 1 1 1 1 1 1 2 3 4 4 3 3 3 3 3 4 4 4 4 4 4 4 3 3 3 3 2 2 2 2 3 4 4 4
2 1 0 0 0 0 1 1 1 1 1 1 1 1 1 1 1 1 1 1 1 2 2 3 2 2 2 2 2 3 3 3 3 3 3 3 2 2 2 2 2 2 1 1 2 3 4 4 4
1 1 0 0 0 1 1 1 1 1 1 1 1 2 2 2 2 2 1 1 1 1 1 1 1 1 1 2 2 2 2 2 2 2 2 2 1 1 1 1 1 1 1 1 1 2 2 3 3
1 1 1 1 1 1 1 1 1 1 1 1 2 3 3 2 2 2 2 1 1 1 1 1 1 1 1 1 1 1 1 1 1 1 1 1 1 1 1 1 1 1 1 1 1 1 1 1 1
1 1 1 1 1 1 1 1 1 1 1 1 2 3 4 3 2 2 2 2 1 1 1 1 0 0 1 1 1 1 1 1 1 1 1 1 1 1 1 1 1 1 1 1 1 0 0 0 0
1 1 1 1 1 2 1 1 1 1 1 1 2 3 3 3 2 2 2 2 2 1 1 1 1 1 1 0 0 0 0 1 1 1 1 1 1 1 1 0 0 0 1 1 1 1 1 0 0
1 1 1 1 1 1 1 1 1 1 1 1 1 2 2 2 2 2 2 2 2 2 1 1 1 1 1 1 1 0 0 1 1 1 1 1 1 1 1 0 0 0 1 1 1 1 1 1 1
1 1 1 1 1 1 1 1 1 1 1 1 1 1 1 2 2 2 2 2 2 2 1 1 1 1 1 1 1 0 0 0 1 1 1 1 1 1 1 1 0 0 0 0 0 1 1 1 1
1 1 1 1 1 1 1 1 2 2 2 1 1 1 1 2 3 3 3 3 2 2 1 1 1 1 1 1 1 0 0 0 0 0 1 1 1 1 1 1 1 1 1 0 0 0 0 1 1
1 1 1 1 1 1 1 2 2 2 2 2 2 2 2 3 4 4 4 3 2 2 2 2 2 2 1 1 1 1 0 0 1 1 1 1 1 1 1 1 1 1 1 0 0 0 0 0 0
1 1 1 1 1 1 2 2 3 2 2 2 2 2 2 3 4 5 4 3 3 2 3 3 3 2 1 1 1 1 1 1 1 1 1 1 1 1 1 2 1 1 1 0 0 0 0 0 0
1 1 1 1 1 1 2 3 3 2 2 2 2 2 3 4 4 4 4 3 3 3 4 4 3 2 2 1 1 1 1 1 1 1 1 1 1 1 2 2 1 1 1 0 0 0 0 0 0
0 0 0 1 1 1 2 3 3 2 2 2 2 2 3 4 5 5 4 3 3 4 5 4 3 2 2 2 2 1 1 1 1 1 1 1 1 1 1 1 1 1 0 0 0 0 0 0 0
0 0 0 1 1 1 2 2 2 2 2 2 2 3 4 5 5 5 5 4 4 4 4 4 3 2 2 2 2 2 2 2 1 1 1 1 1 1 1 1 1 1 1 0 0 0 0 0 0
0 0 0 0 1 1 1 2 2 2 2 2 3 4 5 6 6 6 6 6 5 4 4 3 3 3 3 2 2 2 2 2 1 1 1 1 1 1 1 1 1 1 1 1 1 0 0 0 0
0 0 0 0 0 1 1 1 1 2 2 2 3 3 4 5 5 6 7 8 6 5 4 4 3 3 3 3 2 2 2 2 1 1 1 1 1 1 1 1 1 1 1 1 1 1 0 0 0
0 0 0 0 0 0 1 1 1 1 2 2 3 3 3 4 5 7 8 7 6 5 4 4 3 3 3 3 3 3 2 2 2 2 2 1 1 1 1 1 1 1 1 1 1 1 1 1 1
0 0 0 0 0 0 0 1 1 1 2 3 3 3 3 4 5 6 6 5 4 4 3 3 3 4 4 3 3 3 3 3 3 3 2 2 2 1 1 1 1 1 1 1 1 1 1 1 1
0 0 0 0 0 0 1 1 1 2 3 4 4 3 4 5 6 6 5 4 3 3 3 3 3 4 5 5 4 4 4 4 3 3 3 3 3 2 2 2 1 1 1 1 1 1 1 1 1
0 0 0 0 0 0 1 1 2 3 4 4 4 4 4 5 6 6 4 3 2 2 3 3 4 5 6 7 6 6 6 5 5 4 4 4 4 3 3 2 2 2 2 2 1 1 1 1 1
0 0 0 0 0 0 1 1 2 4 5 5 4 4 4 5 6 6 4 3 2 2 3 4 5 6 8 8 8 7 6 7 7 6 5 5 4 4 3 3 3 3 3 2 2 2 2 1 1
0 0 0 0 0 0 1 1 2 3 5 5 5 4 3 4 6 5 3 2 3 4 4 4 6 7 8 8 6 5 4 6 8 7 6 6 5 5 4 4 4 4 4 4 3 3 2 2 2
0 0 0 0 0 0 1 1 1 3 5 5 4 3 3 5 6 5 3 3 4 5 5 5 6 8 8 6 4 3 3 5 7 6 6 6 6 5 5 4 4 4 4 4 4 3 3 3 3
Wind_Speed
8 6 3 1 1 2 2 2 4 5 6 7 10 10 9 7 5 6 3 8 8 6 5 8 12 13 13 13 13 13 14 13 13 13 12 12 12 11 11 11 11 11 10 10 9 9 8 8 7
5 5 2 0 2 2 2 3 8 8 8 8 10 10 9 8 7 8 5 8 9 7 5 8 11 12 13 13 13 13 13 13 13 12 12 12 11 11 10 10 10 10 9 9 9 8 7 7 6
4 3 1 1 1 2 3 5 8 9 7 6 6 6 6 6 6 5 6 10 8 6 5 8 12 12 13 13 13 13 13 13 12 12 11 11 10 10 9 9 9 9 8 8 8 7 7 6 6
2 1 1 1 0 1 4 6 9 9 7 7 8 7 5 5 5 8 11 11 9 6 5 8 12 13 13 13 12 13 13 12 12 11 11 10 9 9 9 9 9 8 7 7 6 6 5 5 5
1 1 2 2 1 1 4 8 8 8 5 7 9 8 5 4 11 13 12 11 10 7 5 7 12 13 13 13 13 13 12 12 11 10 10 9 8 8 8 8 8 7 6 5 5 5 4 4 5
1 2 2 2 3 3 4 7 9 11 11 10 10 8 4 6 11 11 11 10 9 8 6 6 12 14 13 13 13 12 12 11 11 10 9 8 8 7 7 7 7 6 5 4 4 3 3 3 4
2 2 1 2 2 4 5 6 8 9 9 6 7 7 5 6 9 10 10 9 8 8 6 4 5 8 12 13 12 12 11 11 10 9 8 7 7 7 6 6 5 4 4 3 3 3 3 3 4
2 2 1 2 2 2 4 6 7 9 7 8 6 8 7 8 9 10 9 8 7 6 5 4 4 4 4 6 11 11 10 10 9 8 8 7 6 5 5 5 4 3 2 2 2 3 4 3 3
3 3 1 3 3 3 5 7 5 6 8 5 4 7 11 13 12 10 9 6 6 6 4 4 4 3 3 4 7 7 8 8 7 6 7 5 2 2 2 3 3 3 2 2 2 2 3 3 3
4 3 4 4 4 4 5 7 6 6 7 7 10 11 13 13 12 11 9 8 7 6 5 4 4 4 3 4 3 2 3 3 3 2 2 2 1 1 2 2 3 2 2 2 3 3 3 2 1
4 4 3 3 5 5 6 5 5 8 5 9 14 15 13 12 10 10 9 8 8 7 6 5 5 4 4 2 3 1 1 1 2 2 2 2 2 1 0 0 1 1 2 2 2 2 1 1 1
3 2 3 4 6 6 5 5 6 7 7 10 14 16 13 12 10 9 9 8 7 7 6 5 5 4 4 3 3 2 2 1 1 2 2 2 1 1 0 0 0 1 1 1 1 1 1 1 1
2 2 2 3 4 6 7 7 7 7 10 11 13 13 12 11 9 8 8 8 7 7 6 5 5 4 3 3 2 3 2 2 2 1 1 2 2 1 1 1 0 1 0 0 1 1 1 1 0
2 2 1 3 4 4 8 6 6 8 12 12 12 11 11 11 10 8 8 7 7 7 6 5 5 4 4 3 2 3 2 2 2 1 1 2 2 2 2 1 1 1 1 0 0 0 0 0 1
2 2 2 1 2 3 6 3 5 10 12 12 11 10 10 9 9 8 9 8 8 7 6 6 6 5 4 3 3 3 2 2 2 2 2 2 2 2 2 1 1 1 1 0 0 1 1 1 1
3 3 1 3 3 4 7 5 5 10 12 11 11 10 9 8 8 8 9 8 7 7 6 6 6 5 4 3 3 2 2 2 2 1 1 2 2 2 2 1 1 1 0 1 1 1 1 1 1
2 0 3 4 4 4 5 4 6 9 12 11 11 10 10 8 7 7 9 8 8 8 7 6 5 6 4 4 2 2 2 2 2 2 1 1 1 2 2 1 1 1 1 1 1 1 1 1 1
4 4 4 5 5 4 4 4 7 9 10 11 10 9 9 9 9 9 9 8 8 7 7 6 5 5 4 3 2 2 1 1 1 1 2 2 1 2 2 1 1 1 1 1 1 1 1 0 0
6 5 5 6 5 5 5 4 7 7 7 8 8 8 9 9 8 8 8 8 8 7 6 6 5 4 3 2 2 1 1 1 1 1 2 2 2 2 1 1 1 1 1 1 1 1 1 0 1
5 3 3 3 4 5 4 3 5 8 9 9 10 9 8 7 6 6 7 7 8 8 7 6 5 5 4 3 2 2 1 1 1 1 1 2 2 2 1 1 1 1 1 1 1 2 1 0 0
4 4 4 4 1 2 5 1 2 3 3 5 6 8 8 10 10 8 7 6 7 7 7 6 5 5 4 4 2 2 2 1 1 0 1 1 2 2 1 2 2 1 2 2 2 2 2 2 1
5 6 4 2 2 1 3 2 3 3 3 5 6 7 7 8 9 7 7 6 7 7 6 5 5 4 4 4 3 4 3 2 2 1 1 1 1 1 1 2 2 2 2 2 2 2 2 2 2
6 4 1 1 2 1 2 3 4 1 4 5 5 6 7 8 9 9 8 8 7 7 6 5 4 4 3 3 4 4 2 2 1 1 1 1 1 1 2 2 2 2 1 2 1 1 2 2 2
1 4 5 5 5 2 3 3 4 4 7 6 5 6 7 8 8 7 7 6 5 6 5 5 5 3 3 3 3 4 3 2 2 1 1 1 1 1 1 1 1 1 1 2 2 2 1 1 2
4 6 4 6 5 4 3 3 5 5 6 8 9 8 8 8 8 8 7 7 6 6 6 6 5 4 3 3 3 3 3 3 3 2 2 2 1 1 1 1 1 1 1 2 2 1 1 1 1
3 8 7 5 4 4 2 2 4 2 4 6 8 8 8 7 8 9 9 8 7 7 7 6 6 5 4 4 3 3 3 2 2 2 2 2 2 2 2 2 1 1 1 1 1 1 2 1 2
3 2 7 7 2 0 1 1 3 1 3 5 6 6 7 7 8 8 7 7 7 7 7 7 7 5 5 4 3 2 1 1 2 2 2 2 2 2 2 2 2 1 1 1 1 1 1 1 1
5 5 6 5 3 1 2 2 4 4 4 4 5 6 5 6 6 6 6 6 6 6 6 7 7 6 5 5 3 3 2 1 2 2 2 2 2 2 2 2 2 2 1 1 1 1 1 1 1
1 2 4 4 5 6 3 6 6 9 8 7 6 6 6 7 8 8 7 6 6 5 5 6 6 5 4 4 3 3 2 2 2 1 2 2 1 1 2 2 2 2 2 2 2 2 1 1 1
3 4 6 4 4 4 4 7 4 7 6 8 7 6 6 7 6 6 7 7 7 7 6 5 5 5 5 5 4 3 2 2 2 2 2 1 1 1 2 2 1 2 2 2 2 2 1 1 2
Wind_Direction
177 165 165 190 39 50 64 99 105 86 63 65 75 81 80 65 90 126 159 142 135 139 139 131 127 126 123 122 121 119 117 115 115 116 118 119 120 120 121 124 127 128 128 129 132 133 132 132 134
170 169 189 322 68 67 73 105 95 100 119 108 84 80 75 69 82 111 128 145 139 138 133 131 129 128 127 126 125 123 120 119 118 118 121 122 121 121 123 123 125 126 129 134 139 141 141 139 143
187 192 210 43 78 134 119 113 108 103 103 96 89 68 73 98 107 123 148 143 131 128 129 136 132 131 130 130 130 127 125 124 123 122 123 122 121 124 125 125 125 126 131 138 144 148 149 153 158
170 153 12 55 82 194 140 127 115 106 82 76 91 73 68 98 121 135 139 136 128 127 133 139 136 136 135 134 134 132 131 129 126 125 125 125 124 126 128 128 126 127 132 139 144 151 158 167 176
108 84 41 35 41 93 123 126 119 109 96 91 94 93 77 73 114 128 134 134 132 133 136 141 139 139 138 139 138 138 136 134 131 129 126 127 128 131 135 134 131 133 138 145 152 161 172 180 186
95 69 65 58 39 65 104 117 107 104 111 108 104 105 96 117 121 132 133 134 135 137 136 140 142 141 141 141 140 139 139 137 134 133 133 134 134 136 138 138 137 141 147 156 172 184 193 197 199
106 72 104 93 67 71 107 115 113 123 124 124 123 103 112 127 133 133 130 128 128 132 135 139 141 143 147 145 144 144 144 144 142 142 142 140 139 139 144 149 151 154 159 178 203 215 219 210 210
152 85 52 94 99 95 109 102 120 125 118 126 121 123 148 158 139 122 119 121 125 128 132 132 132 136 143 146 149 149 149 151 150 150 148 146 145 143 149 165 170 172 181 209 244 247 224 215 216
145 99 182 177 165 148 121 100 97 95 110 123 100 123 145 142 132 120 115 111 126 133 138 139 134 135 140 150 156 152 153 154 150 147 146 142 135 142 159 171 179 191 211 240 271 269 230 231 225
146 148 194 184 165 152 131 125 124 100 96 95 100 111 127 130 132 131 133 140 143 144 149 149 148 148 152 161 146 144 147 143 138 136 136 123 130 167 168 187 191 202 237 258 281 290 271 282 285
165 175 165 163 165 148 133 134 125 123 125 141 139 141 141 136 139 141 145 151 155 154 152 154 154 156 154 144 146 144 135 137 141 147 139 125 118 138 170 282 283 286 274 288 307 313 310 302 294
144 179 171 174 165 155 152 139 118 131 157 153 146 146 145 145 151 152 151 152 151 147 155 156 154 150 153 145 154 153 149 162 165 172 154 132 122 134 172 186 287 308 311 317 319 318 319 311 256
123 189 164 161 151 140 139 137 129 131 140 141 139 142 146 147 148 151 150 148 146 150 158 159 153 146 146 142 154 149 165 165 166 156 167 158 154 172 188 217 250 289 311 344 333 332 351 346 335
197 164 124 116 117 141 134 138 122 140 143 141 143 149 153 154 153 147 147 149 151 152 159 159 152 148 137 139 148 150 161 154 144 153 165 168 165 172 181 198 215 245 240 225 209 270 24 6 65
33 43 359 131 127 151 121 121 155 152 145 143 150 151 150 154 152 153 158 157 158 154 149 152 151 144 140 143 148 149 157 145 147 168 170 161 155 161 165 171 202 229 223 196 83 16 50 54 68
41 49 311 261 169 171 128 174 183 155 148 149 155 157 155 161 160 158 156 156 157 152 148 154 151 144 145 142 143 142 150 149 160 173 171 177 179 168 153 155 201 218 161 109 112 74 55 37 44
32 197 243 253 207 169 145 180 185 167 157 159 162 163 163 164 164 162 160 159 160 158 155 151 146 149 150 144 139 133 140 156 167 167 165 177 173 168 157 164 211 182 138 143 140 79 95 61 6
232 238 234 224 214 163 165 174 170 174 163 165 167 167 167 169 173 166 162 161 159 157 153 151 146 151 146 130 115 106 102 146 163 167 172 154 166 159 156 147 156 127 114 97 94 103 66 147 293
215 231 236 239 203 160 180 170 175 169 162 164 170 168 174 178 172 163 162 163 155 153 152 155 151 158 145 127 127 131 153 183 193 193 180 170 177 174 147 136 150 143 137 159 149 132 82 18 51
237 240 254 262 208 159 173 185 174 173 175 172 171 169 168 164 161 166 164 162 158 161 162 161 160 162 161 159 156 157 154 184 195 217 200 186 179 183 160 157 168 158 138 109 113 120 118 261 155
235 211 211 221 231 93 111 31 182 183 154 158 167 172 166 165 166 168 165 162 159 165 171 170 166 164 168 159 129 101 67 33 25 331 248 219 189 177 166 156 157 159 148 167 182 165 156 202 248
248 240 203 183 114 241 136 189 265 188 148 170 180 173 169 167 164 161 158 159 164 169 166 163 164 162 163 156 150 151 160 186 215 217 217 235 200 178 164 150 153 160 156 177 214 178 177 175 226
219 229 184 164 128 62 25 121 276 156 177 200 191 178 164 161 159 161 165 169 165 160 156 156 151 158 162 158 162 162 174 194 201 196 185 204 223 185 162 150 145 151 155 177 196 187 190 189 198
173 44 28 44 63 9 262 145 260 218 202 191 179 171 167 161 158 159 164 158 156 153 154 156 152 158 160 160 160 165 171 170 153 166 179 197 204 209 180 147 149 166 167 185 195 190 186 199 197
86 84 33 5 5 263 265 133 235 232 188 177 175 173 167 164 159 154 159 161 163 162 164 157 153 163 170 164 170 174 175 169 171 180 185 180 183 197 216 181 175 189 200 197 184 175 198 196 186
198 139 154 188 225 270 331 191 255 221 169 161 162 159 152 156 160 165 171 171 171 173 172 162 160 173 179 178 184 185 177 175 186 192 177 183 196 206 206 191 191 204 199 192 176 188 213 196 205
192 188 166 143 171 101 304 301 324 47 108 122 133 138 153 160 163 169 172 170 174 176 177 176 171 174 175 178 172 165 168 178 197 192 171 181 201 201 190 189 194 208 202 188 166 186 219 184 203
168 157 94 109 147 219 270 249 223 205 184 153 141 153 157 153 159 165 172 174 175 175 175 173 173 178 180 176 181 179 179 197 216 181 191 203 212 200 178 189 196 201 197 187 172 188 201 156 212
4 98 114 125 152 158 211 257 223 191 185 168 171 167 162 159 164 167 169 166 164 164 168 173 174 172 173 174 179 178 182 202 202 193 208 207 210 198 203 193 185 194 203 201 187 203 188 189 236
161 183 151 155 224 166 169 254 246 179 171 163 165 168 160 157 153 157 162 160 160 164 166 173 179 176 182 180 174 181 185 188 200 217 223 199 198 203 210 205 190 205 211 208 191 208 213 209 227